#timestamp,LO_Frequency,Hit,StdDev 
1508533215.3,286046998.2,N
1508533235.1,286046996.5,N
1508533255.8,286046999.2,N
1508533275.7,286046997.6,N
1508533295.5,286047005.6,N
1508533315.3,286047009.9,Y
1508533335.2,286047013.5,P
1508533355.0,286047014.4,N
1508533355.9,286047014.4,N
1508533375.7,286047017.5,N
1508533395.6,286047020.2,Y
1508533415.4,286047012.2,P
1508533435.2,286047009.6,P
1508533455.1,286047011.4,P
1508533456.0,286047011.4,Y
1508533475.8,286047005.3,P
1508533495.7,286047005.7,N
1508533515.5,286047006.4,N
1508533535.3,286047008.8,Y
1508533555.2,286047002.6,P
1508533575.9,286047000.6,N
1508533595.7,286047000.2,N
1508533615.5,286047002.2,N
1508533635.4,286047001.8,N
1508533655.2,286047004.0,N
1508533675.0,286047003.3,N
1508533675.9,286047003.3,N
1508533695.8,286047001.5,N
1508533715.6,286047006.0,Y
1508533735.5,286046999.9,P
1508533755.3,286047000.1,N
1508533775.1,286047000.0,N
1508533795.8,286046998.5,N
1508533815.7,286046999.5,N
1508533835.5,286047001.0,N
1508533855.3,286047001.2,N
1508533875.2,286046996.6,N
1508533895.0,286046998.3,N
1508533895.9,286046998.3,N
1508533915.7,286046998.6,N
1508533935.6,286046998.2,N
1508533955.4,286046998.2,N
1508533975.2,286046999.5,N
1508533995.1,286046999.5,N
1508533996.0,286046999.5,N
1508534015.8,286047000.4,N
1508534035.6,286046997.1,N
1508534055.5,286046993.3,Y
1508534075.3,286046998.0,P
1508534095.1,286046995.1,P
1508534115.9,286046996.6,N
1508534135.7,286046996.9,N
1508534155.5,286046996.8,N
1508534175.4,286046997.9,N
1508534195.2,286046994.1,Y
1508534215.0,286046998.8,P
1508534215.9,286046998.8,N
1508534235.8,286046995.2,P
1508534255.6,286046998.9,N
1508534275.4,286046996.8,N
1508534295.3,286046993.8,Y
1508534315.1,286046992.1,P
1508534335.8,286046989.0,P
1508534355.7,286046985.9,P
1508534375.5,286046985.2,Y
1508534395.3,286046991.4,P
1508534415.2,286046991.3,P
1508534435.0,286046986.9,P
1508534435.9,286046986.9,Y
1508534455.7,286046998.4,P
1508534475.6,286046998.1,N
1508534495.4,286046998.2,N
1508534515.2,286046997.3,N
1508534535.1,286046994.6,N
1508534536.0,286046994.6,N
1508534555.8,286046992.1,N
1508534575.6,286046993.9,N
1508534595.5,286046994.2,N
1508534615.3,286046994.3,N
1508534635.1,286046992.3,Y
1508534655.9,286046997.8,P
1508534675.7,286046995.0,P
1508534695.5,286046996.4,N
1508534715.4,286046995.9,Y
1508534735.2,286046999.0,P
1508534755.0,286047000.4,N
1508534755.9,286047000.4,N
1508534775.8,286047000.3,N
1508534795.6,286047000.1,N
1508534815.4,286046999.8,N
1508534835.3,286047002.3,N
1508534855.1,286047003.8,N
1508534875.8,286047001.9,N
1508534895.7,286047001.9,N
1508534915.5,286047002.5,N
1508534935.3,286047000.8,N
1508534955.2,286046999.0,N
1508534975.9,286046998.6,N
1508534995.7,286046999.2,N
1508535015.6,286047001.2,N
1508535035.4,286046998.7,N
1508535055.2,286046998.5,N
1508535075.0,286046998.5,N
1508535076.0,286046998.5,N
1508535095.8,286046997.0,N
1508535115.6,286046998.8,N
1508535135.5,286047006.3,Y
1508535155.3,286047010.1,P
1508535175.1,286047016.5,P
1508535195.9,286047016.3,N
1508535215.7,286047019.2,N
1508535235.5,286047023.2,Y
1508535255.4,286047013.2,P
1508535275.2,286047012.8,P
1508535295.0,286047016.8,P
1508535295.9,286047016.8,Y
1508535315.8,286047000.1,P
1508535335.6,286047003.3,N
1508535355.4,286047004.6,N
1508535375.3,286047005.6,N
1508535395.1,286047002.9,N
1508535396.0,286047002.9,N
1508535415.8,286047003.7,N
1508535435.7,286047003.6,N
1508535455.5,286047005.2,N
1508535475.3,286047001.5,N
1508535495.1,286047002.5,N
1508535515.9,286047000.3,N
1508535535.7,286047001.6,N
1508535555.5,286047000.9,N
1508535575.4,286047001.4,N
1508535595.2,286047001.0,N
1508535615.0,286046997.2,N
1508535615.9,286046997.2,N
1508535635.8,286046997.4,N
1508535655.6,286046996.0,N
1508535675.4,286046995.6,N
1508535695.3,286046997.0,N
1508535715.1,286046997.3,N
1508535716.0,286046997.3,N
1508535735.8,286046999.0,N
1508535755.7,286047000.6,N
1508535775.5,286047000.6,N
1508535795.3,286047000.0,N
1508535815.2,286046999.3,N
1508535835.9,286046997.1,N
1508535855.7,286046997.9,N
1508535875.5,286046995.9,N
1508535895.4,286046996.9,N
1508535915.2,286046999.1,N
1508535935.0,286046999.3,N
1508535935.9,286046999.3,N
1508535955.8,286047001.2,N
1508535975.6,286047000.8,N
1508535995.4,286046998.8,N
1508536015.3,286046999.6,N
1508536035.1,286046995.2,N
1508536055.8,286046998.2,N
1508536075.7,286047000.9,N
1508536095.5,286047002.7,N
1508536115.3,286047000.6,N
1508536135.2,286046996.7,N
1508536155.9,286046994.6,N
1508536175.7,286046991.6,Y
1508536195.6,286046988.9,P
1508536215.4,286046984.1,P
1508536235.2,286046982.7,N
1508536255.1,286046983.1,N
1508536256.0,286046983.1,N
1508536275.8,286046982.8,Y
1508536295.6,286046993.3,P
1508536315.5,286046994.7,N
1508536335.3,286046992.9,N
1508536355.1,286046990.5,Y
1508536375.9,286046998.7,P
1508536395.7,286046998.6,N
1508536415.5,286046999.3,N
1508536435.4,286046996.5,N
1508536455.2,286046997.4,N
1508536475.0,286046995.7,N
1508536475.9,286046995.7,N
1508536495.8,286046995.8,N
1508536515.6,286046997.2,N
1508536535.4,286046997.0,N
1508536555.3,286046996.7,N
1508536575.1,286046996.9,N
1508536576.0,286046996.9,N
1508536595.8,286046997.7,N
1508536615.7,286046995.5,N
1508536635.5,286046994.2,Y
1508536655.3,286046997.1,P
1508536675.2,286046997.0,P
1508536695.9,286046998.8,P
1508536715.7,286047001.1,N
1508536735.6,286046999.0,N
1508536755.4,286046997.4,N
1508536775.2,286046995.1,Y
1508536795.1,286046999.4,P
1508536796.0,286046999.4,N
